Home   Weather   Cincinnati   Past weeks
Flag for USA

Past Weather in Cincinnati, Ohio, USA — Yesterday and Last 2 Weeks

Now
44 °F

Clear.


Feels Like: 40 °F
Forecast: 59 / 40 °F
Wind: 7 mph from Northwest

Location: Cincinnati Municipal Airport Lunken Field

Current Time: Oct 17, 2019 at 6:53:35 am

Latest Report: Oct 17, 2019 at 5:53 am


Visibility: 10 mi

Pressure: 30.00 "Hg

Humidity: 73%

Dew Point: 36 °F

Location of CincinnatiLocation

Past Weather in Cincinnati — Graph

°F

Cincinnati Temperature Yesterday

Maximum temperature yesterday: 65 °F (at 12:21 am)
Minimum temperature yesterday: 47 °F (at 10:53 am)
Average temperature yesterday: 52 °F

High & Low Weather Summary for the Past Weeks

 TemperatureHumidityPressure
High95 °F (Oct 2, 3:53 pm)100% (Oct 2, 4:06 am)30.30 "Hg (Oct 2, 4:06 am)
Low33 °F (Oct 13, 6:24 am)28% (Oct 13, 4:53 pm)29.70 "Hg (Oct 16, 3:53 am)
Average59 °F76%30.08 "Hg
* Reported Oct 2 4:06 am — Oct 17 4:53 am, Cincinnati. Weather by CustomWeather, © 2019

Note: Actual official high and low records may vary slightly from our data, if they occured in-between our weather recording intervals... More about our weather records

Advertising

Cincinnati Weather History for the Previous 24 Hours

Scroll right to see more
 ConditionsComfort  
Time TempWeatherWind HumidityBarometerVisibility
4:53 am
Thu, Oct 17
45 °FClear.7 mph71%29.98 "Hg10 mi
3:53 am45 °FClear.6 mph74%29.98 "Hg10 mi
2:53 am46 °FPassing clouds.7 mph71%29.99 "Hg10 mi
1:53 am46 °FPassing clouds.9 mph71%29.99 "Hg10 mi
12:53 am49 °FOvercast.10 mph64%29.99 "Hg10 mi
11:53 pm
Wed, Oct 16
49 °FOvercast.14 mph64%30.00 "Hg10 mi
10:53 pm50 °FPassing clouds.9 mph63%30.00 "Hg10 mi
9:53 pm51 °FOvercast.12 mph59%29.98 "Hg10 mi
8:53 pm51 °FOvercast.13 mph59%29.97 "Hg10 mi
7:53 pm51 °FOvercast.8 mph59%29.96 "Hg10 mi
6:53 pm51 °FOvercast.13 mph61%29.94 "Hg10 mi
5:53 pm52 °FMore clouds than sun.15 mph61%29.92 "Hg10 mi
4:53 pm51 °FOvercast.12 mph63%29.91 "Hg10 mi
3:53 pm50 °FOvercast.9 mph66%29.90 "Hg10 mi
2:53 pm50 °FOvercast.13 mph63%29.90 "Hg10 mi
1:53 pm50 °FOvercast.9 mph63%29.90 "Hg10 mi
12:53 pm49 °FOvercast.14 mph66%29.90 "Hg10 mi
11:53 am48 °FOvercast.13 mph68%29.90 "Hg10 mi
11:28 am48 °FOvercast.7 mph68%29.89 "Hg10 mi
10:53 am47 °FOvercast.7 mph74%29.88 "Hg10 mi
9:53 am48 °FOvercast.14 mph74%29.86 "Hg10 mi
8:53 am48 °FBroken clouds.9 mph74%29.83 "Hg10 mi
7:53 am48 °FPartly sunny.12 mph80%29.80 "Hg10 mi
7:12 am49 °FOvercast.10 mph84%29.79 "Hg10 mi
6:53 am49 °FLight rain. Overcast.5 mph84%29.78 "Hg8 mi
6:05 am48 °FRain. Fog.9 mph89%29.78 "Hg4 mi
Weather by CustomWeather, © 2019

See weather overview